Orbital Elements at Epoch 2459200.5 (2020-Dec-17.0) TDB
Reference: JPL 16 (heliocentric ecliptic J2000)
Element | Value | Uncertainty (1-sigma) | Units |
e | .2039044856926754 | 4.4938e-08 | |
a | 2.428167604187743 | 1.3123e-08 | au |
q | 1.933053337680225 | 1.0754e-07 | au |
i | 2.540426462342859 | 4.6609e-06 | deg |
node | 165.3175528632672 | 9.1418e-05 | deg |
peri | 171.9426320688437 | 9.2344e-05 | deg |
M | 278.1213779639727 | 1.8378e-05 | deg |
tp | 2459514.828993686488 (2021-Oct-27.32899369) | 7.2625e-05 | TDB |
period | 1382.026650098546 3.78 | 1.1204e-05 3.067e-08 | d yr |
n | .2604870173627478 | 2.1117e-09 | deg/d |
Q | 2.923281870695261 | 1.5799e-08 | au |
|
| | Orbit Determination Parameters
Additional Information
|